Change the Weather History Date:

Thursday, January 9, 2014

  Actual Average Record
Temperature  
Mean Temperature 10 °F 16 °F  
Max Temperature 19 °F 23 °F 40 °F (2002)
Min Temperature 1 °F 8 °F -30 °F (1977)
Degree Days  
Heating Degree Days 55 49  
Month to date heating degree days 543 438  
Since 1 July heating degree days 4058 3697  
Moisture  
Dew Point 4 °F    
Average Humidity 78    
Maximum Humidity 95    
Minimum Humidity 61    
Precipitation  
Precipitation T in 0.08 in 0.54 in (1889)
Month to date precipitation 0.36 0.70  
Year to date precipitation 0.36 0.70  
Snow  
Snow T in 1.10 in 7.00 in (1889)
Month to date snowfall 6.0 9.5  
Since 1 July snowfall 60.7 59.7  
Snow Depth 16.00 in    
Sea Level Pressure  
Sea Level Pressure 30.39 in    
Wind  
Wind Speed 6 mph (SSE)    
Max Wind Speed 15 mph    
Max Gust Speed 20 mph    
Visibility 10 miles    
Events Snow    
T = Trace of Precipitation, MM = Missing Value Source: NWS Daily Summary

Daily Weather History Graph

Daily Weather History Graph

Search for Another Location

Airport or City:

Trip Planner

Search our weather history database for the weather conditions in past years. The results will help you decide how hot, cold, wet, or windy it might be!

Date:

Astronomy

Jan. 09, 2014 Rise Set
Actual Time 8:19 AM EST 5:09 PM EST
Civil Twilight 7:45 AM EST 5:44 PM EST
Nautical Twilight 7:07 AM EST 6:21 PM EST
Astronomical Twilight 6:31 AM EST 6:58 PM EST
Moon 12:44 PM EST (1/9) 2:17 AM EST (1/9)
Length of Visible Light 9h 58m
Length of Day
8h 49m
Waxing Gibbous, 66% of the Moon is Illuminated
Jan 9
Waxing Gibbous
Jan 15
Full
Jan 24
Last Quarter
Jan 30
New
Feb 6
First Quarter

Hourly Weather History & Observations

Time (EST) Temp. Windchill Dew Point Humidity Pressure Visibility Wind Dir Wind Speed Gust Speed Precip Events Conditions
12:55 AM 12.0 °F 0.5 °F 6.1 °F 77% 30.40 in 5.0 mi West 8.1 mph - 0.00 in Snow Light Snow
1:55 AM 10.9 °F -4.1 °F 6.1 °F 81% 30.41 in 7.0 mi WSW 12.7 mph - 0.00 in Snow Light Snow
2:55 AM 10.0 °F -3.7 °F 3.9 °F 76% 30.45 in 10.0 mi West 10.4 mph - 0.00 in   Mostly Cloudy
3:55 AM 10.0 °F 0.4 °F 3.9 °F 76% 30.45 in 10.0 mi SW 5.8 mph - 0.00 in   Overcast
4:26 AM 8.1 °F -0.5 °F 1.9 °F 76% 30.41 in 10.0 mi South 4.6 mph - 0.00 in   Overcast
4:52 AM 6.8 °F -3.5 °F 1.4 °F 79% 30.42 in 10.0 mi WSW 5.8 mph - 0.00 in   Scattered Clouds
4:55 AM 6.1 °F -4.3 °F 1.0 °F 80% 30.46 in 10.0 mi WSW 5.8 mph - 0.00 in   Partly Cloudy
5:55 AM 3.9 °F -3.4 °F -0.9 °F 80% 30.46 in 10.0 mi SSW 3.5 mph - N/A   Clear
6:55 AM 3.0 °F -4.4 °F -2.0 °F 80% 30.48 in 10.0 mi SW 3.5 mph - N/A   Clear
7:11 AM 3.9 °F - -0.9 °F 80% 30.42 in 10.0 mi Calm Calm - N/A   Mostly Cloudy
7:55 AM 1.9 °F - -2.9 °F 80% 30.48 in 10.0 mi Calm Calm - N/A   Mostly Cloudy
8:02 AM 1.9 °F - -2.9 °F 80% 30.43 in 10.0 mi Calm Calm - N/A   Scattered Clouds
8:55 AM 1.9 °F - -0.9 °F 88% 30.50 in 8.0 mi Calm Calm - N/A   Clear
9:55 AM 3.9 °F -5.3 °F -0.0 °F 84% 30.49 in 9.0 mi East 4.6 mph - N/A   Clear
10:55 AM 8.1 °F - 3.0 °F 80% 30.48 in 10.0 mi Calm Calm - N/A   Clear
11:18 AM 8.1 °F -2.0 °F 1.9 °F 76% 30.43 in 10.0 mi SE 5.8 mph - N/A   Mostly Cloudy
11:55 AM 12.0 °F 2.7 °F 5.0 °F 73% 30.44 in 6.0 mi SE 5.8 mph - 0.00 in Snow Light Snow
12:55 PM 15.1 °F 7.7 °F 8.1 °F 74% 30.41 in 9.0 mi SE 4.6 mph - 0.00 in   Overcast
1:55 PM 18.0 °F 5.4 °F 9.0 °F 68% 30.38 in 10.0 mi South 11.5 mph - N/A   Overcast
2:55 PM 17.1 °F 5.8 °F 8.1 °F 68% 30.35 in 10.0 mi SSE 9.2 mph - N/A   Mostly Cloudy
3:55 PM 18.0 °F 8.7 °F 7.0 °F 62% 30.34 in 10.0 mi SE 6.9 mph - N/A   Overcast
4:55 PM 17.1 °F 5.8 °F 9.0 °F 71% 30.34 in 10.0 mi SSE 9.2 mph - N/A   Overcast
6:55 PM 15.1 °F 4.2 °F 9.0 °F 77% 30.32 in 10.0 mi SE 8.1 mph - N/A   Overcast
7:55 PM 15.1 °F 5.2 °F 9.0 °F 77% 30.31 in 10.0 mi SE 6.9 mph - N/A   Overcast
8:55 PM 15.1 °F 5.2 °F 9.0 °F 77% 30.27 in 10.0 mi SE 6.9 mph - N/A   Overcast
9:55 PM 15.1 °F 6.4 °F 8.1 °F 74% 30.25 in 10.0 mi ESE 5.8 mph - N/A   Overcast
10:55 PM 16.0 °F 7.4 °F 9.0 °F 74% 30.24 in 10.0 mi ESE 5.8 mph - N/A   Overcast
11:55 PM 17.1 °F 7.6 °F 10.0 °F 74% 30.21 in 10.0 mi SE 6.9 mph - N/A   Overcast